Volver al catálogo

SL-6 R/B(2)

ActivoHEO
NORAD 6302·ROCKET BODY·🇷🇺 Russia

Lanzado Sep 19, 1972 desde Plesetsk Cosmodrome

Loading…

Próximos Pases (próximas 24 horas)

TLE

ActualizadoSource: Space-Track

Época: Sep 13, 2026, 20:50 UTC

1 06302U 72072E   26256.86842044  .00000639  00000-0  00000-0 0  9994
2 06302  69.8783 300.1812 5359082 261.8670  37.0158  2.03777710234480

Sigue SL-6 R/B(2) en tiempo real con AllMySat

Download on the App Store